Theta_e
317 317 316 316 316 315 314 313 312 312 311 310 309 309 310 309 308 308 308 308 308 307 307 307 307 307 307 307 306 306 306 306 306 306 306 306 305 304 305 305 306 308 309
316 316 316 315 315 314 313 312 312 312 311 309 310 310 308 307 306 307 307 307 307 308 308 308 308 308 307 307 306 306 306 306 305 306 306 306 305 304 305 305 306 306 307
315 315 314 314 314 313 312 312 311 311 310 310 309 308 307 306 306 307 308 308 308 308 308 308 308 308 308 307 306 306 306 306 306 306 306 306 305 305 305 305 305 306 307
312 311 311 311 312 312 311 310 309 309 308 308 307 306 306 306 307 308 308 308 308 308 308 307 307 307 307 307 307 306 307 306 307 306 306 306 306 306 306 305 305 305 305
307 306 306 306 307 308 307 307 307 307 306 306 306 306 307 307 306 307 307 306 304 303 304 305 306 306 308 308 308 309 309 308 308 307 307 307 307 307 307 306 304 304 304
303 302 302 303 304 304 305 305 305 305 306 306 306 307 306 305 305 306 304 302 302 302 302 305 306 305 305 306 306 307 307 308 309 309 308 308 308 307 307 306 305 304 306
300 299 300 300 301 301 302 303 304 304 304 305 306 306 306 304 304 303 302 301 302 301 301 302 303 303 304 306 306 305 305 306 307 307 308 308 308 308 307 306 306 305 305
297 297 298 298 299 300 301 302 302 303 304 304 305 304 303 302 300 300 301 301 300 300 299 300 301 304 306 305 304 303 304 306 307 307 307 308 308 308 307 306 305 305 304
295 295 297 298 299 300 300 300 301 302 303 302 302 302 300 299 298 298 297 298 298 299 301 301 302 303 303 304 302 303 305 308 309 307 306 306 307 308 308 305 304 304 305
294 294 295 296 297 298 299 299 298 299 299 299 300 299 297 297 296 297 295 296 295 295 299 301 302 302 302 302 301 302 303 303 306 306 306 307 308 307 307 306 305 305 306
294 294 295 296 296 297 297 296 296 296 297 298 297 296 295 294 293 293 295 293 293 294 297 300 301 300 300 300 299 300 299 302 304 305 305 306 308 307 307 307 306 305 305
296 295 295 295 296 296 294 293 293 293 295 295 293 293 292 292 291 292 294 294 295 294 297 298 299 298 298 298 296 296 298 299 300 303 304 305 307 308 308 307 307 307 307
295 295 295 294 294 294 293 292 291 291 291 291 291 292 292 291 290 291 293 294 296 295 297 297 297 296 296 296 295 295 295 296 297 299 302 305 306 307 308 308 308 308 308
294 294 294 294 294 293 292 291 290 289 290 290 290 291 290 290 289 289 291 292 293 294 295 295 295 294 295 294 294 293 293 294 294 295 297 304 307 307 307 307 308 309 309
293 293 294 294 293 293 293 293 291 289 288 289 289 289 289 288 288 288 290 290 290 292 293 292 292 292 293 292 292 292 292 292 292 292 294 297 305 309 309 308 308 308 309
294 293 294 293 293 293 292 292 292 289 288 286 287 287 286 286 286 288 289 290 289 290 291 291 290 290 291 290 290 290 290 290 290 291 292 294 297 302 310 311 311 310 310
292 291 291 291 291 292 291 290 290 289 287 285 285 285 284 285 285 286 287 288 288 288 289 289 288 288 289 289 288 288 288 289 289 289 290 292 294 296 300 309 312 313 312
290 290 289 289 289 288 288 287 287 287 287 286 284 283 284 283 284 283 284 285 286 286 286 287 286 286 286 287 286 286 286 287 287 288 289 290 292 294 296 302 312 315 314
289 288 288 288 287 287 286 286 285 285 284 284 284 283 282 282 282 282 282 282 283 283 283 284 285 284 284 284 284 284 284 285 285 286 287 288 290 291 293 298 307 317 317
287 287 287 286 285 285 284 284 284 283 283 283 282 282 281 281 281 281 281 281 281 281 281 282 283 283 282 283 283 283 283 284 284 284 285 286 288 290 294 300 304 319 319
286 285 284 284 284 283 283 282 282 282 282 282 282 281 280 280 280 280 280 280 280 280 280 280 281 281 281 282 282 281 282 282 282 283 284 285 287 290 294 299 307 320 318
284 284 283 283 282 282 282 282 282 282 282 282 281 281 280 280 280 280 280 279 279 279 279 279 280 280 280 280 281 280 281 281 281 282 283 284 287 290 295 298 307 318 316
284 283 283 282 282 282 282 282 282 281 281 281 281 281 280 279 279 279 279 279 279 279 279 279 279 279 279 280 280 280 280 280 280 281 282 284 287 291 293 299 317 317 315
284 284 283 282 282 281 281 281 281 281 281 280 281 281 280 279 279 279 279 279 279 279 279 279 279 279 279 279 279 279 279 279 279 280 282 285 287 290 292 299 312 314 311
284 283 283 282 282 281 281 280 280 280 281 280 279 280 280 279 279 279 278 278 279 279 279 279 279 279 279 279 279 279 278 279 279 280 282 284 287 290 291 295 300 311 309
284 283 282 282 281 280 280 280 279 279 279 279 278 278 279 279 278 278 278 278 278 279 279 278 278 279 279 279 278 278 278 278 279 281 282 283 285 287 290 292 295 301 310
Wind_Speed
20 18 18 16 14 11 9 7 6 4 3 5 6 8 10 12 13 14 16 17 17 19 19 19 21 23 25 25 25 26 23 23 15 24 24 29 30 29 31 31 29 29 32
15 14 13 12 10 8 6 4 3 2 2 4 5 8 11 14 15 14 15 17 15 18 22 23 24 24 27 26 24 25 24 26 24 20 25 26 26 28 27 30 30 29 27
14 10 8 6 6 4 3 3 3 4 4 3 6 11 13 14 15 14 15 16 18 20 23 26 28 27 30 27 25 25 24 24 25 25 24 25 23 23 25 25 26 25 27
14 11 10 8 5 3 4 4 3 1 3 6 9 11 12 13 13 13 15 17 20 24 28 31 32 30 30 30 26 26 25 24 25 25 25 24 23 24 21 23 22 21 22
15 13 12 11 10 8 6 3 2 4 7 9 10 10 11 10 12 13 16 19 24 30 29 27 29 28 28 31 30 31 29 27 25 23 23 22 20 19 19 16 18 22 21
13 11 7 6 5 4 3 4 7 8 9 9 9 9 12 13 12 14 18 24 28 26 25 32 31 27 25 27 30 30 31 32 31 28 25 21 24 21 21 20 18 16 7
12 9 8 8 6 5 6 5 6 7 9 10 10 10 12 13 14 19 24 27 26 23 24 26 30 23 27 27 32 34 35 35 36 36 32 30 28 27 23 24 18 15 18
13 11 8 6 6 7 7 8 9 10 11 10 10 10 12 14 19 23 26 25 24 22 21 23 26 28 27 32 37 38 36 35 32 34 32 35 35 31 25 25 25 19 20
12 9 6 6 8 8 11 12 11 12 10 9 10 12 16 17 19 20 24 25 23 25 24 24 23 26 33 37 37 30 30 31 30 29 31 34 36 34 30 18 17 13 10
13 10 7 7 8 9 11 11 11 9 9 9 10 13 14 17 17 18 21 22 23 26 28 25 25 27 35 34 33 27 25 30 29 28 25 22 26 35 36 31 23 15 13
13 10 11 11 11 10 9 11 11 11 10 10 12 14 16 18 19 20 19 20 21 25 24 27 29 33 30 32 28 23 30 32 27 22 20 19 21 24 27 28 28 27 19
18 17 13 9 9 10 13 14 15 15 13 13 17 17 18 18 19 21 21 19 18 20 19 24 28 31 28 26 28 29 31 28 24 21 18 16 16 19 22 26 25 24 26
14 19 17 14 13 13 16 16 17 18 16 14 14 15 17 18 22 24 24 22 19 19 18 19 22 25 26 24 28 30 28 28 26 22 22 18 19 22 22 22 23 22 25
8 10 16 16 15 15 14 15 17 18 16 16 15 15 17 19 24 28 25 26 24 22 24 23 21 22 21 24 27 29 27 27 25 24 23 24 17 14 15 16 18 19 19
7 6 8 11 12 11 9 8 11 18 20 15 16 15 18 21 26 23 20 24 27 22 19 21 23 26 28 31 31 31 31 33 32 31 28 26 22 17 14 14 17 18 17
12 10 9 8 8 9 12 13 11 14 16 17 16 20 18 17 20 20 18 18 24 24 19 21 23 25 26 29 30 32 30 34 33 31 28 25 24 23 18 14 18 19 18
15 15 14 14 13 12 13 11 9 10 14 19 19 20 22 20 23 21 17 17 24 23 22 22 23 25 26 28 29 29 29 31 31 29 27 25 25 23 23 18 17 20 13
15 14 16 16 17 16 15 13 11 11 12 15 22 22 22 22 22 24 24 21 22 23 23 23 25 27 27 27 30 32 34 34 34 33 31 28 26 24 23 20 16 5 10
14 15 15 15 14 14 13 14 12 12 12 14 17 24 26 24 23 24 25 25 22 22 24 24 25 26 27 26 28 31 33 33 33 33 32 31 28 27 25 22 21 7 14
14 13 13 13 13 15 15 13 12 13 14 15 17 22 25 26 26 24 23 22 21 21 23 23 25 26 27 28 30 33 35 36 37 35 36 34 31 27 25 24 21 6 8
14 14 14 16 16 15 13 13 12 13 13 14 16 19 23 18 19 18 21 21 21 21 22 23 23 25 27 28 31 33 34 36 37 37 38 38 36 32 30 24 22 7 12
17 16 15 14 14 14 13 13 12 12 13 14 15 18 22 19 18 18 19 21 20 20 21 21 22 24 26 28 30 33 35 37 41 42 43 43 38 35 31 26 19 12 15
17 18 17 16 14 14 14 14 13 12 12 14 14 15 19 19 19 19 19 20 20 21 21 22 22 25 27 28 29 31 33 38 41 40 43 41 40 39 35 30 2 13 13
15 15 16 14 14 15 13 12 12 12 13 13 14 12 18 18 19 19 20 20 21 21 21 22 22 25 28 28 31 34 34 38 41 42 41 38 38 40 35 31 20 8 15
14 14 14 14 14 13 12 12 12 12 11 13 13 12 12 16 17 18 20 21 20 21 23 22 22 26 27 27 31 35 37 39 42 44 39 36 38 38 35 30 32 10 11
11 12 12 12 13 14 13 11 12 13 12 13 14 13 13 14 16 17 19 20 21 20 22 23 24 26 26 27 33 35 38 39 41 43 39 38 40 38 36 32 31 24 11
Wind_Direction
118 123 120 114 108 108 103 100 101 91 58 8 342 333 332 328 323 312 307 310 311 311 310 308 309 311 304 301 298 290 279 275 277 285 280 287 292 290 291 294 295 291 291
122 117 113 117 118 116 110 114 122 158 230 298 304 316 318 318 318 317 315 316 317 312 311 311 308 308 301 298 291 284 277 277 271 280 284 287 284 287 287 293 292 293 291
115 119 120 126 140 141 134 164 188 209 256 281 306 314 316 320 321 324 323 321 317 318 315 314 306 304 300 296 290 283 280 276 273 272 275 281 285 289 289 285 292 292 293
112 109 99 92 103 127 123 131 144 199 298 309 316 319 322 323 329 333 326 318 318 315 312 310 308 302 294 295 290 283 282 277 274 272 280 281 277 282 277 286 292 293 297
111 100 84 83 89 91 91 78 353 323 322 323 324 334 339 345 348 335 323 324 320 317 312 313 309 300 293 290 290 289 286 281 279 277 275 274 264 267 269 285 284 297 302
100 90 81 67 54 41 356 324 313 321 324 326 338 348 356 352 344 329 327 321 320 317 314 317 315 312 314 310 309 310 298 285 279 276 273 268 266 261 271 274 283 294 311
75 64 42 25 9 346 330 320 325 335 335 342 351 349 348 349 339 328 324 320 321 317 320 319 318 318 324 328 326 314 302 293 281 271 267 263 264 256 263 274 272 269 274
50 43 34 31 25 19 20 8 358 351 349 355 356 349 345 345 333 329 325 328 324 320 322 321 320 328 336 337 326 310 297 293 289 278 268 263 258 258 253 255 268 275 279
46 39 36 35 25 20 13 5 2 1 3 7 355 354 349 336 337 344 340 334 329 328 330 330 337 334 335 332 330 317 311 306 314 302 288 277 260 257 254 248 243 249 269
36 34 40 31 33 32 21 11 358 1 348 353 352 354 346 343 349 351 349 340 332 331 336 340 342 341 335 337 337 329 326 318 304 305 300 288 274 258 257 249 241 233 249
40 44 49 47 47 39 26 19 13 9 5 11 5 360 0 3 358 355 3 350 338 331 331 338 342 342 340 339 340 335 334 336 331 321 306 290 268 258 256 254 247 232 237
45 44 41 50 56 43 39 36 32 32 30 21 8 6 8 5 358 1 6 6 359 340 335 340 339 337 340 339 347 354 356 346 338 329 305 283 270 254 250 255 260 253 247
54 53 56 65 65 61 54 43 34 31 29 19 13 6 2 2 359 2 11 13 14 2 358 351 340 345 345 348 353 356 356 349 345 340 327 293 285 284 270 252 252 258 261
61 61 57 63 66 68 68 58 55 40 32 23 14 6 3 2 3 1 7 9 8 11 10 358 347 347 355 357 356 358 357 353 349 340 327 322 303 298 279 263 245 239 241
67 65 76 69 64 65 62 60 60 55 45 32 23 12 5 3 358 5 10 12 8 8 1 359 357 360 0 359 357 357 356 355 353 346 341 334 326 301 283 274 249 242 238
68 73 76 61 70 71 73 76 72 62 39 37 35 28 19 14 10 16 19 20 17 18 11 6 359 358 358 354 352 348 353 352 349 344 340 337 331 328 300 280 252 238 223
77 77 81 79 74 81 70 63 49 48 43 37 35 32 25 19 18 21 27 27 27 22 16 9 360 357 352 352 350 349 345 345 343 343 338 334 330 326 324 304 272 273 186
81 78 77 78 80 76 67 61 51 37 25 18 25 24 20 18 20 20 26 32 22 19 14 8 1 356 353 349 349 348 345 344 345 343 338 336 333 328 323 316 305 187 179
78 75 79 79 73 71 65 58 52 44 34 24 16 18 20 18 26 25 28 29 19 12 7 3 359 355 354 351 349 347 345 341 340 339 338 336 333 328 319 311 315 250 203
77 73 77 76 70 65 60 55 46 42 38 31 26 16 10 15 17 14 19 18 15 10 4 1 357 356 355 355 350 349 346 346 345 344 340 336 331 327 316 318 313 234 195
80 77 76 76 69 66 63 58 53 47 41 35 30 22 25 20 16 15 14 12 7 3 359 358 356 354 354 353 352 350 348 345 345 343 339 335 331 329 325 317 316 196 159
84 76 74 74 71 64 60 57 51 45 36 29 23 19 20 20 16 14 9 7 5 3 359 358 358 356 354 351 350 350 348 347 345 344 340 335 334 333 333 324 314 146 140
85 78 74 73 68 64 57 50 45 39 31 24 20 19 16 15 14 11 4 359 1 1 360 0 357 355 354 352 352 351 349 346 342 341 338 335 336 340 338 334 324 122 129
83 77 69 67 61 57 49 44 38 35 31 24 18 13 12 11 10 8 3 359 359 359 359 359 356 356 354 353 351 351 349 347 348 347 348 342 342 345 350 357 11 111 136
76 74 64 59 55 47 42 37 31 25 23 18 14 10 2 6 7 5 5 4 360 358 356 355 355 353 353 354 352 350 349 351 356 359 355 352 352 356 358 3 6 39 116
77 72 66 57 49 39 32 28 23 20 17 11 8 6 2 360 3 1 360 359 357 353 352 355 354 352 352 353 351 350 350 352 356 7 3 360 -0 0 4 4 6 15 19